RYR6831 LZIB-LIBD

Flight info

Callsign RYR6831
Flight time 1h 8m
Altitude 34000
Route VAMOG DCT SIRDU DCT KOPRY DCT TIVNU DCT DIXUM DCT ORAKA DCT AIOSA DCT BANAV
Aircraft B738/M-SDE2E3FGHIRWXY/LB1

Departure

Time 2026-05-04 05:31
Airport M. R. Štefánik Airport (LZIB)

Arrival

Time 2026-05-04 06:40
Airport Bari Karol Wojtyła International Airport (LIBD)
Time Latitude Longitude Altitude Speed Heading
2026-05-04 05:22 48.17083 17.20335 441 ft 0 kts 310°
2026-05-04 05:25 48.17074 17.20350 431 ft 3 kts 315°
2026-05-04 05:26 48.17063 17.20368 426 ft 3 kts 306°
2026-05-04 05:26 48.17055 17.20391 428 ft 3 kts 266°
2026-05-04 05:26 48.17061 17.20415 441 ft 3 kts 227°
2026-05-04 05:26 48.17070 17.20428 441 ft 0 kts 224°
2026-05-04 05:29 48.17026 17.20366 432 ft 16 kts 224°
2026-05-04 05:29 48.16939 17.20241 432 ft 17 kts 224°
2026-05-04 05:31 48.17257 17.21629 463 ft 147 kts 43°
2026-05-04 05:31 48.18097 17.22609 1350 ft 154 kts 43°
2026-05-04 05:32 48.18889 17.23867 2154 ft 178 kts 49°
2026-05-04 05:32 48.19790 17.25259 2735 ft 200 kts 47°
2026-05-04 05:32 48.20827 17.26788 3274 ft 214 kts 46°
2026-05-04 05:33 48.22123 17.30762 4241 ft 244 kts 102°
2026-05-04 05:33 48.21675 17.33300 4851 ft 258 kts 109°
2026-05-04 05:33 48.21192 17.35940 5698 ft 266 kts 108°
2026-05-04 05:33 48.20728 17.38673 6508 ft 274 kts 109°
2026-05-04 05:34 48.19889 17.41168 7400 ft 269 kts 138°
2026-05-04 05:34 48.18304 17.42563 8259 ft 268 kts 166°
2026-05-04 05:34 48.16502 17.42868 9048 ft 272 kts 185°
2026-05-04 05:34 48.14604 17.42495 9844 ft 278 kts 190°
2026-05-04 05:35 48.12664 17.41989 10525 ft 290 kts 191°
2026-05-04 05:35 48.10594 17.41424 10724 ft 316 kts 191°
2026-05-04 05:35 48.08341 17.40819 10926 ft 341 kts 190°
2026-05-04 05:35 48.05936 17.40188 11306 ft 358 kts 190°
2026-05-04 05:36 48.03718 17.39617 11872 ft 364 kts 189°
2026-05-04 05:36 48.01176 17.38971 12626 ft 368 kts 189°
2026-05-04 05:36 47.98631 17.38329 13331 ft 373 kts 189°
2026-05-04 05:36 47.96064 17.37685 14043 ft 377 kts 189°
2026-05-04 05:37 47.93460 17.37035 14723 ft 381 kts 189°
2026-05-04 05:37 47.90828 17.36379 15388 ft 386 kts 189°
2026-05-04 05:37 47.88172 17.35720 16052 ft 390 kts 189°
2026-05-04 05:38 47.82809 17.34390 17274 ft 399 kts 189°
2026-05-04 05:38 47.80062 17.33710 17874 ft 403 kts 189°
2026-05-04 05:38 47.77283 17.33023 18451 ft 407 kts 189°
2026-05-04 05:38 47.74478 17.32330 19050 ft 410 kts 190°
2026-05-04 05:39 47.71648 17.31632 19615 ft 414 kts 190°
2026-05-04 05:39 47.65910 17.30218 20705 ft 421 kts 190°
2026-05-04 05:39 47.63006 17.29503 21210 ft 425 kts 190°
2026-05-04 05:40 47.57118 17.28059 22187 ft 432 kts 190°
2026-05-04 05:40 47.54147 17.27332 22642 ft 436 kts 190°
2026-05-04 05:40 47.51137 17.26596 23086 ft 439 kts 190°
2026-05-04 05:41 47.48112 17.25859 23552 ft 442 kts 190°
2026-05-04 05:41 47.45067 17.25116 23993 ft 445 kts 190°
2026-05-04 05:41 47.41999 17.24368 24387 ft 448 kts 190°
2026-05-04 05:41 47.38911 17.23615 24782 ft 452 kts 190°
2026-05-04 05:42 47.35799 17.22858 25175 ft 454 kts 190°
2026-05-04 05:42 47.32674 17.22099 25566 ft 457 kts 190°
2026-05-04 05:42 47.29695 17.21376 25888 ft 460 kts 190°
2026-05-04 05:42 47.26432 17.20586 26240 ft 463 kts 190°
2026-05-04 05:43 47.23243 17.19814 26592 ft 466 kts 190°
2026-05-04 05:43 47.20032 17.19038 26925 ft 468 kts 190°
2026-05-04 05:43 47.16804 17.18258 27240 ft 471 kts 190°
2026-05-04 05:45 46.93779 17.12728 29295 ft 486 kts 190°
2026-05-04 05:45 46.90444 17.11932 29691 ft 485 kts 191°
2026-05-04 05:47 46.67208 17.06403 32136 ft 481 kts 191°
2026-05-04 05:47 46.63901 17.05619 32432 ft 482 kts 191°
2026-05-04 05:47 46.60592 17.04838 32757 ft 481 kts 191°
2026-05-04 05:48 46.57288 17.04059 33104 ft 479 kts 191°
2026-05-04 05:48 46.54003 17.03286 33420 ft 479 kts 191°
2026-05-04 05:48 46.50715 17.02512 33710 ft 478 kts 191°
2026-05-04 05:48 46.47435 17.01741 34005 ft 478 kts 191°
2026-05-04 05:49 46.44158 17.00973 34295 ft 477 kts 191°
2026-05-04 05:49 46.40886 17.00209 34592 ft 476 kts 191°
2026-05-04 05:49 46.37616 16.99446 34853 ft 476 kts 191°
2026-05-04 05:49 46.34341 16.98686 35122 ft 475 kts 191°
2026-05-04 05:51 46.11378 16.97106 36721 ft 475 kts 178°
2026-05-04 05:51 46.08081 16.97407 37010 ft 472 kts 178°
2026-05-04 05:52 46.04818 16.97688 37383 ft 468 kts 178°
2026-05-04 05:52 46.01579 16.97951 37714 ft 464 kts 179°
2026-05-04 05:52 45.98361 16.98204 37953 ft 462 kts 178°
2026-05-04 05:52 45.95155 16.98449 38101 ft 463 kts 178°
2026-05-04 05:54 45.69007 17.00428 38132 ft 474 kts 178°
2026-05-04 05:55 45.62420 17.00927 38133 ft 474 kts 178°
2026-05-04 05:55 45.55848 17.01423 38153 ft 472 kts 179°
2026-05-04 05:56 45.49292 17.01914 38153 ft 471 kts 179°
2026-05-04 05:56 45.42735 17.02408 38157 ft 471 kts 178°
2026-05-04 05:57 45.36196 17.02898 38142 ft 470 kts 179°
2026-05-04 05:57 45.29672 17.03386 38153 ft 469 kts 179°
2026-05-04 05:58 45.23147 17.03875 38161 ft 469 kts 178°
2026-05-04 05:58 45.16636 17.04364 38163 ft 468 kts 179°
2026-05-04 05:59 45.10128 17.04853 38165 ft 468 kts 179°
2026-05-04 05:59 45.03618 17.05347 38149 ft 469 kts 178°
2026-05-04 06:00 44.97097 17.05831 38165 ft 469 kts 179°
2026-05-04 06:00 44.90580 17.06388 38173 ft 470 kts 177°
2026-05-04 06:01 44.84045 17.07026 38162 ft 471 kts 178°
2026-05-04 06:03 44.57796 17.09591 38161 ft 473 kts 179°
2026-05-04 06:05 44.29497 17.12306 38156 ft 469 kts 178°
2026-05-04 06:06 44.22972 17.12930 38151 ft 469 kts 179°
2026-05-04 06:06 44.16460 17.13550 38148 ft 469 kts 178°
2026-05-04 06:07 44.09958 17.14168 38171 ft 469 kts 178°
2026-05-04 06:07 44.03447 17.14787 38150 ft 469 kts 179°
2026-05-04 06:08 43.96937 17.15402 38162 ft 469 kts 178°
2026-05-04 06:08 43.90423 17.16021 38180 ft 470 kts 179°
2026-05-04 06:09 43.83884 17.16638 38163 ft 471 kts 178°
2026-05-04 06:11 43.57622 17.19125 38173 ft 476 kts 179°
2026-05-04 06:13 43.31089 17.19893 38182 ft 476 kts 183°
2026-05-04 06:14 43.07960 17.19927 38169 ft 475 kts 183°
2026-05-04 06:15 43.01323 17.19944 37574 ft 481 kts 183°
2026-05-04 06:15 42.97979 17.19952 37027 ft 479 kts 183°
2026-05-04 06:15 42.94651 17.19961 36433 ft 478 kts 183°
2026-05-04 06:16 42.91323 17.19969 35812 ft 478 kts 183°
2026-05-04 06:16 42.87987 17.19979 35122 ft 480 kts 182°
2026-05-04 06:16 42.84644 17.19988 34425 ft 482 kts 183°
2026-05-04 06:16 42.81275 17.19998 33679 ft 485 kts 182°
2026-05-04 06:17 42.77893 17.20007 32960 ft 487 kts 183°
2026-05-04 06:17 42.74506 17.20017 32185 ft 489 kts 182°
2026-05-04 06:17 42.71093 17.20027 31422 ft 491 kts 182°
2026-05-04 06:17 42.67661 17.20039 30570 ft 495 kts 182°
2026-05-04 06:18 42.64212 17.20053 29802 ft 496 kts 182°
2026-05-04 06:18 42.60783 17.20068 29216 ft 491 kts 182°
2026-05-04 06:18 42.57367 17.20079 28587 ft 488 kts 182°
2026-05-04 06:20 42.34058 17.21585 23981 ft 465 kts 176°
2026-05-04 06:20 42.30847 17.21843 23386 ft 460 kts 176°
2026-05-04 06:21 42.18322 17.22811 21058 ft 442 kts 176°
2026-05-04 06:21 42.15309 17.23044 20499 ft 438 kts 176°
2026-05-04 06:22 42.12248 17.23281 19927 ft 433 kts 176°
2026-05-04 06:22 42.09241 17.23515 19332 ft 430 kts 176°
2026-05-04 06:25 41.77430 17.06460 12305 ft 384 kts 223°
2026-05-04 06:25 41.75442 17.04101 11784 ft 381 kts 223°
2026-05-04 06:26 41.73440 17.01792 11251 ft 378 kts 218°
2026-05-04 06:26 41.71099 17.00276 11024 ft 368 kts 198°
2026-05-04 06:26 41.68689 16.99320 10853 ft 356 kts 197°
2026-05-04 06:26 41.66343 16.98416 10693 ft 345 kts 197°
2026-05-04 06:27 41.57695 16.94998 10141 ft 305 kts 198°
2026-05-04 06:28 41.55700 16.94215 9939 ft 299 kts 198°
2026-05-04 06:28 41.53695 16.93429 9601 ft 298 kts 198°
2026-05-04 06:28 41.51705 16.92653 9296 ft 297 kts 198°
2026-05-04 06:28 41.49728 16.91883 8993 ft 295 kts 198°
2026-05-04 06:29 41.47761 16.91115 8691 ft 294 kts 198°
2026-05-04 06:29 41.45805 16.90350 8383 ft 292 kts 198°
2026-05-04 06:29 41.43860 16.89587 8079 ft 291 kts 198°
2026-05-04 06:29 41.41902 16.89065 7725 ft 286 kts 178°
2026-05-04 06:30 41.40076 16.89869 7491 ft 274 kts 145°
2026-05-04 06:30 41.38803 16.91649 7238 ft 261 kts 119°
2026-05-04 06:30 41.38013 16.93744 7046 ft 246 kts 116°
2026-05-04 06:30 41.37221 16.95714 6769 ft 236 kts 120°
2026-05-04 06:31 41.36354 16.97539 6519 ft 231 kts 124°
2026-05-04 06:31 41.35421 16.99246 6254 ft 226 kts 128°
2026-05-04 06:31 41.34433 17.00842 5989 ft 221 kts 131°
2026-05-04 06:31 41.33397 17.02330 5723 ft 217 kts 135°
2026-05-04 06:32 41.32317 17.03712 5479 ft 214 kts 139°
2026-05-04 06:33 41.23930 17.01923 3927 ft 199 kts 217°
2026-05-04 06:34 41.22789 17.00896 3707 ft 196 kts 217°
2026-05-04 06:34 41.21672 16.99891 3481 ft 193 kts 217°
2026-05-04 06:34 41.20566 16.98889 3273 ft 191 kts 221°
2026-05-04 06:34 41.19875 16.97497 3081 ft 181 kts 256°
2026-05-04 06:35 41.19482 16.95942 2881 ft 175 kts 252°
2026-05-04 06:36 41.16817 16.86460 1563 ft 145 kts 252°
2026-05-04 06:37 41.16466 16.85212 1356 ft 146 kts 253°
2026-05-04 06:37 41.16108 16.83942 1177 ft 148 kts 252°
2026-05-04 06:37 41.15746 16.82662 984 ft 147 kts 252°
2026-05-04 06:37 41.15387 16.81391 781 ft 146 kts 253°
2026-05-04 06:38 41.15034 16.80127 588 ft 146 kts 253°
2026-05-04 06:38 41.14682 16.78874 401 ft 145 kts 254°
2026-05-04 06:40 41.13355 16.74898 182 ft 16 kts 89°
2026-05-04 06:40 41.13388 16.75056 178 ft 20 kts 62°
2026-05-04 06:40 41.13450 16.75252 171 ft 27 kts 73°
2026-05-04 06:40 41.13509 16.75508 169 ft 31 kts 73°
2026-05-04 06:41 41.13582 16.75770 164 ft 30 kts 69°
2026-05-04 06:41 41.13642 16.75997 155 ft 19 kts 90°
2026-05-04 06:41 41.13572 16.76112 154 ft 13 kts 129°
2026-05-04 06:41 41.13519 16.76162 155 ft 7 kts 159°
2026-05-04 06:42 41.13485 16.76179 155 ft 0 kts 159°